Time,TemperatureF,DewpointF,PressureIn,WindDirection,WindDirectionDegrees,WindSpeedMPH,WindSpeedGustMPH,Humidity,HourlyPrecipIn,Conditions,Clouds,dailyrainin,SoftwareType,DateUTC
2015-05-25 00:00:00,57.8,49.6,29.69,NNW,335,0.0,0.0,74,0.00,,,0.00,Wunderground v.1.15,2015-05-25 07:00:00,
2015-05-25 00:05:00,57.9,49.3,29.69,NNW,335,0.0,0.0,73,0.00,,,0.00,Wunderground v.1.15,2015-05-25 07:05:00,
2015-05-25 00:15:00,57.5,48.9,29.69,NNW,335,0.0,0.0,73,0.00,,,0.00,Wunderground v.1.15,2015-05-25 07:15:00,
2015-05-25 00:25:00,57.2,49.7,29.69,NNW,335,0.0,0.0,76,0.00,,,0.00,Wunderground v.1.15,2015-05-25 07:25:00,
2015-05-25 00:40:00,57.4,49.5,29.69,NNW,335,0.0,0.0,75,0.00,,,0.00,Wunderground v.1.15,2015-05-25 07:40:00,
2015-05-25 00:50:00,57.3,49.4,29.69,NNW,335,0.0,0.0,75,0.00,,,0.00,Wunderground v.1.15,2015-05-25 07:50:00,
2015-05-25 00:55:00,57.3,49.8,29.69,NNW,335,0.0,0.0,76,0.00,,,0.00,Wunderground v.1.15,2015-05-25 07:55:00,
2015-05-25 01:05:00,57.6,49.7,29.69,NNW,335,0.0,0.0,75,0.00,,,0.00,Wunderground v.1.15,2015-05-25 08:05:00,
2015-05-25 01:15:00,57.5,49.6,29.69,NNW,335,0.0,0.0,75,0.00,,,0.00,Wunderground v.1.15,2015-05-25 08:15:00,
2015-05-25 01:25:00,57.3,49.4,29.69,NNW,335,0.0,0.0,75,0.00,,,0.00,Wunderground v.1.15,2015-05-25 08:25:00,
2015-05-25 01:35:00,57.3,49.8,29.69,NNW,335,0.0,0.0,76,0.00,,,0.00,Wunderground v.1.15,2015-05-25 08:35:00,
2015-05-25 01:45:00,57.2,49.3,29.69,NNW,335,0.0,0.0,75,0.00,,,0.00,Wunderground v.1.15,2015-05-25 08:45:00,
2015-05-25 01:50:00,57.1,49.6,29.69,NW,304,0.0,0.0,76,0.00,,,0.00,Wunderground v.1.15,2015-05-25 08:50:00,
2015-05-25 01:55:00,57.2,49.7,29.69,NNW,338,0.0,0.0,76,0.00,,,0.00,Wunderground v.1.15,2015-05-25 08:55:00,
2015-05-25 02:05:00,57.7,49.5,29.69,NNW,328,0.0,0.0,74,0.00,,,0.00,Wunderground v.1.15,2015-05-25 09:05:00,
2015-05-25 02:15:00,57.5,49.6,29.69,West,259,0.0,0.0,75,0.00,,,0.00,Wunderground v.1.15,2015-05-25 09:15:00,
2015-05-25 02:25:00,57.4,49.5,29.69,West,269,0.0,0.0,75,0.00,,,0.00,Wunderground v.1.15,2015-05-25 09:25:00,
2015-05-25 02:35:00,57.1,49.6,29.69,West,269,0.0,0.0,76,0.00,,,0.00,Wunderground v.1.15,2015-05-25 09:35:00,
2015-05-25 02:45:00,56.7,49.6,29.68,West,269,0.0,0.0,77,0.00,,,0.00,Wunderground v.1.15,2015-05-25 09:45:00,
2015-05-25 02:55:00,56.5,49.4,29.68,West,269,0.0,0.0,77,0.00,,,0.00,Wunderground v.1.15,2015-05-25 09:55:00,
2015-05-25 03:05:00,56.5,49.4,29.68,North,360,0.0,0.0,77,0.00,,,0.00,Wunderground v.1.15,2015-05-25 10:05:00,
2015-05-25 03:15:00,56.2,49.4,29.68,North,5,0.0,0.0,78,0.00,,,0.00,Wunderground v.1.15,2015-05-25 10:15:00,
2015-05-25 03:20:00,56.2,49.4,29.68,North,5,0.0,0.0,78,0.00,,,0.00,Wunderground v.1.15,2015-05-25 10:20:00,
2015-05-25 03:30:00,55.9,48.8,29.67,North,5,0.0,0.0,77,0.00,,,0.00,Wunderground v.1.15,2015-05-25 10:30:00,
2015-05-25 03:35:00,55.7,48.9,29.67,North,5,0.0,0.0,78,0.00,,,0.00,Wunderground v.1.15,2015-05-25 10:35:00,
2015-05-25 03:45:00,55.6,49.5,29.68,North,5,0.0,0.0,80,0.00,,,0.00,Wunderground v.1.15,2015-05-25 10:45:00,
2015-05-25 03:55:00,55.9,49.8,29.67,North,11,0.0,3.0,80,0.00,,,0.00,Wunderground v.1.15,2015-05-25 10:55:00,
2015-05-25 04:05:00,56.2,49.4,29.67,North,11,0.0,0.0,78,0.00,,,0.00,Wunderground v.1.15,2015-05-25 11:05:00,
2015-05-25 04:15:00,55.5,49.1,29.67,North,11,0.0,0.0,79,0.00,,,0.00,Wunderground v.1.15,2015-05-25 11:15:00,
2015-05-25 04:20:00,55.3,49.2,29.67,North,11,0.0,0.0,80,0.00,,,0.00,Wunderground v.1.15,2015-05-25 11:20:00,
2015-05-25 04:30:00,55.1,49.0,29.67,North,11,0.0,0.0,80,0.00,,,0.00,Wunderground v.1.15,2015-05-25 11:30:00,
2015-05-25 04:40:00,54.9,49.2,29.67,North,11,0.0,0.0,81,0.00,,,0.00,Wunderground v.1.15,2015-05-25 11:40:00,
2015-05-25 04:45:00,54.9,49.2,29.67,North,11,0.0,0.0,81,0.00,,,0.00,Wunderground v.1.15,2015-05-25 11:45:00,
2015-05-25 04:55:00,54.9,49.5,29.67,North,5,0.0,1.0,82,0.00,,,0.00,Wunderground v.1.15,2015-05-25 11:55:00,
2015-05-25 05:05:00,54.9,49.2,29.67,North,5,0.0,0.0,81,0.00,,,0.00,Wunderground v.1.15,2015-05-25 12:05:00,
2015-05-25 05:15:00,54.6,48.9,29.67,North,5,0.0,0.0,81,0.00,,,0.00,Wunderground v.1.15,2015-05-25 12:15:00,
2015-05-25 05:20:00,54.4,48.7,29.67,North,5,0.0,0.0,81,0.00,,,0.00,Wunderground v.1.15,2015-05-25 12:20:00,
2015-05-25 05:25:00,54.2,48.8,29.67,North,5,0.0,0.0,82,0.00,,,0.00,Wunderground v.1.15,2015-05-25 12:25:00,
2015-05-25 05:35:00,55.5,50.1,29.68,NNW,338,1.0,2.0,82,0.00,,,0.00,Wunderground v.1.15,2015-05-25 12:35:00,
2015-05-25 05:45:00,55.5,50.1,29.68,NNW,338,1.0,2.0,82,0.00,,,0.00,Wunderground v.1.15,2015-05-25 12:45:00,
2015-05-25 05:50:00,55.3,49.9,29.68,NNW,338,1.0,2.0,82,0.00,,,0.00,Wunderground v.1.15,2015-05-25 12:50:00,
2015-05-25 06:00:00,55.3,49.9,29.68,NNW,338,3.0,4.0,82,0.00,,,0.00,Wunderground v.1.15,2015-05-25 13:00:00,
2015-05-25 06:05:00,55.3,49.9,29.68,NNW,338,3.0,4.0,82,0.00,,,0.00,Wunderground v.1.15,2015-05-25 13:05:00,
2015-05-25 06:15:00,55.5,50.1,29.68,NNW,347,3.0,4.0,82,0.00,,,0.00,Wunderground v.1.15,2015-05-25 13:15:00,
2015-05-25 06:20:00,55.4,50.0,29.68,NNW,336,2.0,2.0,82,0.00,,,0.00,Wunderground v.1.15,2015-05-25 13:20:00,
2015-05-25 06:25:00,55.4,50.0,29.68,NNW,336,1.0,2.0,82,0.00,,,0.00,Wunderground v.1.15,2015-05-25 13:25:00,
2015-05-25 06:35:00,55.4,50.0,29.68,NNW,336,0.0,3.0,82,0.00,,,0.00,Wunderground v.1.15,2015-05-25 13:35:00,
2015-05-25 06:45:00,55.9,50.5,29.68,North,355,3.0,3.0,82,0.00,,,0.00,Wunderground v.1.15,2015-05-25 13:45:00,
2015-05-25 06:55:00,56.6,50.8,29.69,NNW,340,2.0,3.0,81,0.00,,,0.00,Wunderground v.1.15,2015-05-25 13:55:00,
2015-05-25 07:05:00,57.6,51.5,29.69,NNW,340,0.0,1.0,80,0.00,,,0.00,Wunderground v.1.15,2015-05-25 14:05:00,
2015-05-25 07:15:00,58.1,51.3,29.69,NNW,340,0.0,0.0,78,0.00,,,0.00,Wunderground v.1.15,2015-05-25 14:15:00,
2015-05-25 07:25:00,58.2,51.7,29.69,NNW,340,1.0,2.0,79,0.00,,,0.00,Wunderground v.1.15,2015-05-25 14:25:00,
2015-05-25 07:35:00,59.2,52.3,29.69,NNW,340,3.0,4.0,78,0.00,,,0.00,Wunderground v.1.15,2015-05-25 14:35:00,
2015-05-25 07:45:00,60.8,53.2,29.70,NNW,340,0.0,1.0,76,0.00,,,0.00,Wunderground v.1.15,2015-05-25 14:45:00,
2015-05-25 07:55:00,62.7,53.5,29.69,NNW,340,0.0,0.0,72,0.00,,,0.00,Wunderground v.1.15,2015-05-25 14:55:00,
2015-05-25 08:05:00,65.0,54.6,29.70,NNW,340,0.0,0.0,69,0.00,,,0.00,Wunderground v.1.15,2015-05-25 15:05:00,
2015-05-25 08:15:00,67.2,54.6,29.70,NNW,340,0.0,0.0,64,0.00,,,0.00,Wunderground v.1.15,2015-05-25 15:15:00,
2015-05-25 08:25:00,69.1,55.1,29.70,NNW,340,0.0,0.0,61,0.00,,,0.00,Wunderground v.1.15,2015-05-25 15:25:00,
2015-05-25 08:35:00,70.0,54.1,29.70,South,174,2.0,2.0,57,0.00,,,0.00,Wunderground v.1.15,2015-05-25 15:35:00,
2015-05-25 08:45:00,70.4,54.4,29.70,South,179,2.0,3.0,57,0.00,,,0.00,Wunderground v.1.15,2015-05-25 15:45:00,
2015-05-25 08:55:00,71.1,54.6,29.70,SE,124,3.0,6.0,56,0.00,,,0.00,Wunderground v.1.15,2015-05-25 15:55:00,
2015-05-25 09:05:00,71.5,54.5,29.70,SSE,155,2.0,4.0,55,0.00,,,0.00,Wunderground v.1.15,2015-05-25 16:05:00,
2015-05-25 09:15:00,72.5,54.9,29.70,South,178,1.0,5.0,54,0.00,,,0.00,Wunderground v.1.15,2015-05-25 16:15:00,
2015-05-25 09:25:00,73.3,55.1,29.69,South,173,1.0,1.0,53,0.00,,,0.00,Wunderground v.1.15,2015-05-25 16:25:00,
2015-05-25 09:30:00,73.6,54.9,29.69,SSW,199,2.0,2.0,52,0.00,,,0.00,Wunderground v.1.15,2015-05-25 16:30:00,
2015-05-25 09:40:00,73.5,54.3,29.70,South,173,3.0,3.0,51,0.00,,,0.00,Wunderground v.1.15,2015-05-25 16:40:00,
2015-05-25 09:50:00,73.8,54.0,29.69,NNE,17,2.0,2.0,50,0.00,,,0.00,Wunderground v.1.15,2015-05-25 16:50:00,
2015-05-25 09:55:00,74.6,55.3,29.69,NNE,17,1.0,2.0,51,0.00,,,0.00,Wunderground v.1.15,2015-05-25 16:55:00,
2015-05-25 10:05:00,74.9,54.4,29.69,WNW,284,3.0,4.0,49,0.00,,,0.00,Wunderground v.1.15,2015-05-25 17:05:00,
2015-05-25 10:15:00,74.8,53.8,29.69,ESE,111,4.0,8.0,48,0.00,,,0.00,Wunderground v.1.15,2015-05-25 17:15:00,
2015-05-25 10:20:00,74.5,54.1,29.69,SE,142,5.0,5.0,49,0.00,,,0.00,Wunderground v.1.15,2015-05-25 17:20:00,
2015-05-25 10:30:00,74.6,54.7,29.69,SSE,165,3.0,3.0,50,0.00,,,0.00,Wunderground v.1.15,2015-05-25 17:30:00,
2015-05-25 10:40:00,76.3,55.2,29.69,West,278,2.0,3.0,48,0.00,,,0.00,Wunderground v.1.15,2015-05-25 17:40:00,
2015-05-25 10:45:00,76.4,54.7,29.69,South,175,2.0,3.0,47,0.00,,,0.00,Wunderground v.1.15,2015-05-25 17:45:00,
2015-05-25 10:55:00,75.8,54.1,29.69,WNW,285,4.0,8.0,47,0.00,,,0.00,Wunderground v.1.15,2015-05-25 17:55:00,
2015-05-25 11:10:00,76.5,53.6,29.69,SW,234,3.0,9.0,45,0.00,,,0.00,Wunderground v.1.15,2015-05-25 18:10:00,
2015-05-25 11:15:00,76.8,53.2,29.69,West,259,4.0,9.0,44,0.00,,,0.00,Wunderground v.1.15,2015-05-25 18:15:00,
2015-05-25 11:25:00,77.3,53.1,29.69,WSW,242,3.0,4.0,43,0.00,,,0.00,Wunderground v.1.15,2015-05-25 18:25:00,
2015-05-25 11:35:00,77.0,53.4,29.69,SW,234,4.0,5.0,44,0.00,,,0.00,Wunderground v.1.15,2015-05-25 18:35:00,
2015-05-25 11:40:00,77.7,53.4,29.69,NW,308,3.0,3.0,43,0.00,,,0.00,Wunderground v.1.15,2015-05-25 18:40:00,
2015-05-25 11:50:00,77.1,53.5,29.69,West,272,3.0,7.0,44,0.00,,,0.00,Wunderground v.1.15,2015-05-25 18:50:00,
2015-05-25 12:00:00,78.3,53.3,29.69,West,264,4.0,4.0,42,0.00,,,0.00,Wunderground v.1.15,2015-05-25 19:00:00,
2015-05-25 12:05:00,78.4,52.7,29.69,SSE,151,4.0,6.0,41,0.00,,,0.00,Wunderground v.1.15,2015-05-25 19:05:00,
2015-05-25 12:15:00,77.8,52.9,29.68,SW,234,4.0,5.0,42,0.00,,,0.00,Wunderground v.1.15,2015-05-25 19:15:00,
2015-05-25 12:25:00,78.6,52.9,29.68,West,277,3.0,3.0,41,0.00,,,0.00,Wunderground v.1.15,2015-05-25 19:25:00,
2015-05-25 12:35:00,78.6,53.6,29.68,SW,219,4.0,4.0,42,0.00,,,0.00,Wunderground v.1.15,2015-05-25 19:35:00,
2015-05-25 12:45:00,78.8,53.1,29.68,SSW,202,3.0,4.0,41,0.00,,,0.00,Wunderground v.1.15,2015-05-25 19:45:00,
2015-05-25 12:55:00,79.5,52.4,29.68,WSW,258,4.0,9.0,39,0.00,,,0.00,Wunderground v.1.15,2015-05-25 19:55:00,
2015-05-25 13:00:00,78.5,52.8,29.68,ESE,103,6.0,6.0,41,0.00,,,0.00,Wunderground v.1.15,2015-05-25 20:00:00,
2015-05-25 13:05:00,79.4,53.0,29.68,SW,231,4.0,6.0,40,0.00,,,0.00,Wunderground v.1.15,2015-05-25 20:05:00,
2015-05-25 13:15:00,79.7,52.5,29.68,ESE,117,3.0,7.0,39,0.00,,,0.00,Wunderground v.1.15,2015-05-25 20:15:00,
2015-05-25 13:25:00,80.0,52.1,29.67,SSE,157,3.0,3.0,38,0.00,,,0.00,Wunderground v.1.15,2015-05-25 20:25:00,
2015-05-25 13:30:00,80.1,52.9,29.67,SSE,147,2.0,4.0,39,0.00,,,0.00,Wunderground v.1.15,2015-05-25 20:30:00,
2015-05-25 13:40:00,79.7,52.5,29.67,SW,229,3.0,4.0,39,0.00,,,0.00,Wunderground v.1.15,2015-05-25 20:40:00,
2015-05-25 13:50:00,79.8,51.9,29.67,SSE,157,2.0,2.0,38,0.00,,,0.00,Wunderground v.1.15,2015-05-25 20:50:00,
2015-05-25 14:00:00,79.4,52.3,29.67,West,275,4.0,6.0,39,0.00,,,0.00,Wunderground v.1.15,2015-05-25 21:00:00,